York, PA

8:18 PM EST on December 05, 2019 (GMT -0500)
York

Weather History for KTHV - October, 2019

Change the Weather History Date:

Thursday, October 3, 2019

  Actual Average Record
Temperature  
Mean Temperature 68 °F -  
Max Temperature 75 °F 0 °F 84 °F (2002)
Min Temperature 62 °F - 30 °F (2003)
Cooling Degree Days 4    
Growing Degree Days 18 (Base 50)    
Moisture  
Dew Point 63 °F    
Average Humidity 89    
Maximum Humidity 94    
Minimum Humidity 73    
Precipitation  
Precipitation 0.29 in - - ()
Sea Level Pressure  
Sea Level Pressure 30.00 in    
Wind  
Wind Speed 6 mph ()    
Max Wind Speed 9 mph    
Max Gust Speed -    
Visibility 5.6 miles    
Events Rain    
Averages and records for this station are not official NWS values.
T = Trace of Precipitation, MM = Missing Value Source: Averaged Metar Reports

Daily Weather History Graph

Daily Weather History Graph

Search for Another Location

Airport or City:

Astronomy

Oct. 03, 2019 Rise Set
Actual Time 7:05 AM EDT 6:46 PM EDT
Civil Twilight 6:38 AM EDT 7:13 PM EDT
Nautical Twilight 6:07 AM EDT 7:45 PM EDT
Astronomical Twilight 5:35 AM EDT 8:16 PM EDT
Moon 12:34 PM EDT (10/3) 10:24 PM EDT (10/3)
Length of Visible Light 12h 35m
Length of Day
11h 41m
Waxing Crescent, 29% of the Moon is Illuminated
Oct 3
Waxing Crescent
Oct 5
First Quarter
Oct 13
Full
Oct 21
Last Quarter
Oct 27
New

Hourly Weather History & Observations

Time (EDT) Temp. Dew Point Humidity Pressure Visibility Wind Dir Wind Speed Gust Speed Precip Events Conditions
12:53 AM 75.0 °F 66.0 °F 73% 29.94 in 10.0 mi NNE 4.6 mph - 0.00 in   Overcast
1:53 AM 73.0 °F 66.0 °F 79% 29.93 in 10.0 mi East 9.2 mph - 0.00 in   Overcast
2:26 AM 72.0 °F 63.0 °F 73% 29.94 in 10.0 mi ENE 6.9 mph - 0.00 in   Overcast
2:34 AM 71.1 °F 63.0 °F 75% 29.94 in 10.0 mi East 8.1 mph - 0.00 in   Overcast
2:53 AM 71.1 °F 63.0 °F 75% 29.94 in 10.0 mi NE 6.9 mph - 0.00 in   Overcast
3:40 AM 70.0 °F 63.0 °F 78% 29.96 in 10.0 mi NE 4.6 mph - N/A   Overcast
3:53 AM 70.0 °F 63.0 °F 78% 29.95 in 10.0 mi NE 4.6 mph - N/A   Overcast
4:38 AM 70.0 °F 63.0 °F 78% 29.98 in 10.0 mi North 5.8 mph - N/A   Overcast
4:53 AM 69.1 °F 64.0 °F 84% 29.98 in 9.0 mi North 5.8 mph - 0.00 in Rain Light Rain
5:30 AM 66.9 °F 64.0 °F 90% 29.98 in 6.0 mi NE 3.5 mph - 0.01 in Rain Light Rain
5:49 AM 68.0 °F 64.4 °F 88% 29.99 in 10.0 mi Calm Calm - 0.02 in Rain Light Rain
5:53 AM 68.0 °F 64.0 °F 87% 29.98 in 7.0 mi ENE 3.5 mph - 0.02 in Rain Light Rain
6:01 AM 68.0 °F 64.0 °F 87% 29.99 in 5.0 mi NE 3.5 mph - 0.00 in Rain Light Rain
6:11 AM 68.0 °F 64.9 °F 90% 30.00 in 7.0 mi Calm Calm - 0.00 in Rain Light Rain
6:21 AM 68.0 °F 64.0 °F 87% 30.01 in 8.0 mi NNE 4.6 mph - 0.00 in Rain Light Rain
6:53 AM 66.9 °F 64.0 °F 90% 30.01 in 5.0 mi NE 5.8 mph - 0.01 in Rain Light Rain
7:53 AM 66.9 °F 64.0 °F 90% 30.03 in 3.0 mi ENE 3.5 mph - 0.03 in Rain Light Rain
8:13 AM 66.9 °F 64.0 °F 90% 30.03 in 2.0 mi East 6.9 mph - 0.00 in Rain Light Rain
8:18 AM 66.9 °F 64.0 °F 90% 30.04 in 2.5 mi ENE 5.8 mph - 0.01 in Rain Light Rain
8:24 AM 66.9 °F 64.0 °F 90% 30.04 in 1.8 mi ENE 5.8 mph - 0.02 in Rain Light Rain
8:45 AM 66.9 °F 64.0 °F 90% 30.04 in 2.0 mi East 6.9 mph - 0.04 in Rain Light Rain
8:53 AM 66.9 °F 64.0 °F 90% 30.04 in 1.5 mi East 5.8 mph - 0.06 in Rain Rain
9:00 AM 66.0 °F 63.0 °F 90% 30.04 in 1.5 mi ENE 9.2 mph - 0.00 in Rain Light Rain
9:34 AM 64.0 °F 62.1 °F 93% 30.04 in 2.0 mi NE 8.1 mph - 0.07 in Rain Light Rain
9:41 AM 63.0 °F 60.1 °F 90% 30.04 in 2.5 mi ENE 8.1 mph - 0.08 in Rain Rain
9:49 AM 62.6 °F 60.8 °F 94% 30.05 in 1.8 mi NE 6.9 mph - 0.13 in Rain Heavy Rain
9:53 AM 62.1 °F 60.1 °F 93% 30.05 in 2.0 mi ENE 6.9 mph - 0.14 in Rain Rain
9:57 AM 62.1 °F 60.1 °F 93% 30.05 in 3.0 mi ENE 8.1 mph - 0.00 in Rain Light Rain
10:18 AM 62.1 °F 60.1 °F 93% 30.04 in 7.0 mi East 9.2 mph - 0.01 in Rain Light Rain
10:53 AM 62.1 °F 59.0 °F 90% 30.05 in 6.0 mi NE 6.9 mph - 0.01 in   Overcast
11:36 AM 62.1 °F 60.1 °F 93% 30.05 in 10.0 mi NE 9.2 mph - 0.00 in   Overcast
11:53 AM 62.1 °F 60.1 °F 93% 30.05 in 3.0 mi ENE 8.1 mph - 0.00 in   Overcast
11:59 AM 62.1 °F 60.1 °F 93% 30.04 in 2.0 mi East 5.8 mph - N/A   Overcast
12:08 PM 62.1 °F 60.1 °F 93% 30.04 in 1.5 mi ENE 5.8 mph - N/A   Overcast
12:45 PM 64.0 °F 61.0 °F 90% 30.04 in 1.0 mi ENE 4.6 mph - 0.01 in   Overcast
12:53 PM 64.0 °F 62.1 °F 93% 30.03 in 0.8 mi ENE 5.8 mph - 0.01 in   Overcast
1:05 PM 64.9 °F 62.1 °F 90% 30.03 in 1.0 mi East 5.8 mph - N/A   Overcast
1:16 PM 64.9 °F 63.0 °F 93% 30.02 in 1.8 mi East 5.8 mph - N/A   Overcast
1:18 PM 66.0 °F 63.0 °F 90% 30.02 in 2.5 mi East 6.9 mph - N/A   Overcast
1:26 PM 66.0 °F 63.0 °F 90% 30.02 in 5.0 mi SE 9.2 mph - N/A   Overcast
1:44 PM 66.0 °F 64.0 °F 93% 30.02 in 10.0 mi East 5.8 mph - N/A   Overcast
1:53 PM 66.9 °F 64.0 °F 90% 30.02 in 10.0 mi East 6.9 mph - N/A   Overcast
2:03 PM 66.9 °F 64.0 °F 90% 30.02 in 9.0 mi ESE 6.9 mph - N/A   Overcast
2:42 PM 66.9 °F 63.0 °F 87% 30.01 in 2.0 mi ESE 5.8 mph - N/A   Overcast
2:51 PM 66.2 °F 62.6 °F 88% 30.01 in 1.5 mi ESE 8.1 mph - N/A   Overcast
2:53 PM 66.0 °F 63.0 °F 90% 30.01 in 1.5 mi ESE 8.1 mph - N/A   Overcast
3:17 PM 66.0 °F 63.0 °F 90% 30.01 in 2.0 mi East 8.1 mph - N/A   Overcast
3:31 PM 66.0 °F 63.0 °F 90% 30.00 in 3.0 mi ESE 6.9 mph - N/A   Overcast
3:53 PM 66.0 °F 63.0 °F 90% 30.00 in 6.0 mi ESE 6.9 mph - N/A   Overcast
4:40 PM 66.0 °F 63.0 °F 90% 29.99 in 10.0 mi SE 9.2 mph - N/A   Overcast
4:53 PM 66.0 °F 62.1 °F 87% 29.99 in 10.0 mi ESE 6.9 mph - N/A   Overcast
5:06 PM 66.0 °F 63.0 °F 90% 29.98 in 10.0 mi SE 6.9 mph - N/A   Overcast
5:16 PM 66.0 °F 63.0 °F 90% 29.98 in 10.0 mi SE 9.2 mph - N/A   Overcast
5:53 PM 66.0 °F 63.0 °F 90% 29.99 in 10.0 mi SE 6.9 mph - N/A   Overcast
6:53 PM 64.9 °F 62.1 °F 90% 29.98 in 10.0 mi ESE 6.9 mph - N/A   Overcast
7:53 PM 64.9 °F 63.0 °F 93% 29.97 in 10.0 mi ESE 4.6 mph - N/A   Overcast
8:53 PM 64.9 °F 63.0 °F 93% 29.97 in 10.0 mi ESE 5.8 mph - N/A   Overcast
9:49 PM 64.4 °F 62.6 °F 94% 29.98 in 7.0 mi North 4.6 mph - N/A   Overcast
9:53 PM 64.9 °F 63.0 °F 93% 29.98 in 6.0 mi North 3.5 mph - N/A   Overcast
10:26 PM 64.9 °F 63.0 °F 93% 29.98 in 2.5 mi NNE 3.5 mph - N/A   Overcast
10:44 PM 64.9 °F 63.0 °F 93% 29.98 in 1.8 mi Calm Calm - N/A   Overcast
10:53 PM 64.9 °F 63.0 °F 93% 29.98 in 1.5 mi Calm Calm - 0.00 in Rain Light Rain
11:53 PM 64.0 °F 62.1 °F 93% 29.98 in 1.8 mi Calm Calm - 0.01 in   Overcast